When you browse on this site, cookies collect data to enhance your experience and personalize the content and advertising you see.
Visit our Privacy Policy to learn more. By continuing to use the site, you agree to this use of cookies and data.
  • In Hungary
  • List of Countries
  • For 7 days
  • Water Temperature
  • Weather Map
  • News
  • Weather Widgets
  • user-avatar
    Login

    Hourly Weather Moshnino

    Today, 21 January, Tuesday

    Time Temperature Precipitation Wind Pressure Humidity
    00:00 -1°C° 0 mm 5 mps 750 mmHg 86%
    01:00 -1°C° 0.2 mm 5 mps 749 mmHg 89%
    02:00 -2°C° 0.2 mm 5 mps 749 mmHg 93%
    03:00 -3°C° 0.2 mm 6 mps 748 mmHg 96%
    04:00 -3°C° 0.2 mm 6 mps 747 mmHg 96%
    05:00 -3°C° 0.2 mm 6 mps 746 mmHg 95%
    06:00 -3°C° 0.2 mm 6 mps 744 mmHg 95%
    07:00 -2°C° 0.8 mm 6 mps 743 mmHg 95%
    08:00 -1°C° 0.8 mm 6 mps 742 mmHg 95%
    09:00 +1°C° 0.8 mm 6 mps 741 mmHg 95%
    10:00 +1°C° 0.2 mm 6 mps 741 mmHg 93%
    11:00 +2°C° 0.2 mm 6 mps 740 mmHg 91%
    12:00 +2°C° 0.2 mm 6 mps 739 mmHg 90%
    13:00 +2°C° 0.1 mm 6 mps 739 mmHg 89%
    14:00 +2°C° 0.1 mm 6 mps 739 mmHg 88%
    15:00 +2°C° 0.1 mm 6 mps 738 mmHg 88%
    16:00 +2°C° 0 mm 6 mps 737 mmHg 88%
    17:00 +2°C° 0 mm 6 mps 737 mmHg 88%
    18:00 +2°C° 0 mm 6 mps 736 mmHg 89%
    19:00 +2°C° 0.5 mm 5 mps 736 mmHg 90%
    20:00 +1°C° 0.5 mm 5 mps 735 mmHg 91%
    21:00 +1°C° 0.5 mm 5 mps 735 mmHg 93%
    22:00 0°C° 0.2 mm 5 mps 735 mmHg 88%
    23:00 -1°C° 0.2 mm 6 mps 735 mmHg 83%

    Tomorrow, 22 January, Wednesday

    Time Temperature Precipitation Wind Pressure Humidity
    00:00 -2°C° 0.2 mm 7 mps 735 mmHg 79%
    01:00 -3°C° 0 mm 7 mps 735 mmHg 78%
    02:00 -3°C° 0 mm 7 mps 736 mmHg 78%
    03:00 -4°C° 0 mm 7 mps 736 mmHg 77%
    04:00 -4°C° 0 mm 7 mps 735 mmHg 77%
    05:00 -4°C° 0 mm 6 mps 735 mmHg 78%
    06:00 -4°C° 0 mm 6 mps 734 mmHg 78%
    07:00 -4°C° 0 mm 6 mps 734 mmHg 80%
    08:00 -4°C° 0 mm 6 mps 733 mmHg 82%
    09:00 -4°C° 0 mm 6 mps 733 mmHg 83%
    10:00 -4°C° 0.1 mm 6 mps 733 mmHg 79%
    11:00 -4°C° 0.1 mm 6 mps 733 mmHg 76%
    12:00 -3°C° 0.1 mm 7 mps 733 mmHg 72%
    13:00 -3°C° 0 mm 6 mps 733 mmHg 71%
    14:00 -3°C° 0 mm 6 mps 733 mmHg 71%
    15:00 -4°C° 0 mm 6 mps 733 mmHg 71%
    16:00 -4°C° 0 mm 6 mps 733 mmHg 71%
    17:00 -4°C° 0 mm 6 mps 733 mmHg 72%
    18:00 -6°C° 0 mm 7 mps 733 mmHg 73%
    19:00 -6°C° 0.1 mm 7 mps 733 mmHg 75%
    20:00 -6°C° 0.1 mm 7 mps 734 mmHg 77%
    21:00 -6°C° 0.1 mm 7 mps 734 mmHg 79%
    22:00 -7°C° 0 mm 7 mps 735 mmHg 77%
    23:00 -7°C° 0 mm 7 mps 735 mmHg 75%

    Day after tomorrow, 23 January, Thursday

    Time Temperature Precipitation Wind Pressure Humidity
    00:00 -7°C° 0 mm 7 mps 736 mmHg 74%
    01:00 -8°C° 0 mm 7 mps 736 mmHg 73%
    02:00 -8°C° 0 mm 7 mps 737 mmHg 72%
    03:00 -9°C° 0 mm 7 mps 738 mmHg 71%
    04:00 -9°C° 0 mm 7 mps 738 mmHg 70%
    05:00 -9°C° 0 mm 7 mps 739 mmHg 69%
    06:00 -11°C° 0 mm 7 mps 739 mmHg 68%
    07:00 -11°C° 0 mm 7 mps 739 mmHg 65%
    08:00 -11°C° 0 mm 7 mps 740 mmHg 63%
    09:00 -11°C° 0 mm 7 mps 740 mmHg 60%
    10:00 -11°C° 0 mm 7 mps 741 mmHg 60%
    11:00 -9°C° 0 mm 7 mps 741 mmHg 59%
    12:00 -9°C° 0 mm 7 mps 741 mmHg 59%
    13:00 -9°C° 0 mm 7 mps 742 mmHg 60%
    14:00 -9°C° 0 mm 7 mps 742 mmHg 61%
    15:00 -9°C° 0 mm 7 mps 743 mmHg 63%
    16:00 -9°C° 0 mm 6 mps 743 mmHg 64%
    17:00 -10°C° 0 mm 6 mps 744 mmHg 66%
    18:00 -10°C° 0 mm 6 mps 745 mmHg 67%
    19:00 -10°C° 0 mm 5 mps 745 mmHg 68%
    20:00 -10°C° 0 mm 5 mps 746 mmHg 69%
    21:00 -11°C° 0 mm 5 mps 746 mmHg 71%
    22:00 -10°C° 0 mm 4 mps 746 mmHg 72%
    23:00 -10°C° 0 mm 4 mps 746 mmHg 73%

    24 January, Friday

    Time Temperature Precipitation Wind Pressure Humidity
    00:00 -9°C° 0 mm 3 mps 747 mmHg 74%
    01:00 -9°C° 0 mm 3 mps 746 mmHg 74%
    02:00 -9°C° 0 mm 3 mps 746 mmHg 74%
    03:00 -9°C° 0 mm 3 mps 746 mmHg 74%
    04:00 -8°C° 0 mm 3 mps 746 mmHg 72%
    05:00 -8°C° 0 mm 3 mps 745 mmHg 70%
    06:00 -8°C° 0 mm 3 mps 744 mmHg 68%
    07:00 -8°C° 0.2 mm 4 mps 744 mmHg 77%
    08:00 -8°C° 0.2 mm 4 mps 743 mmHg 85%
    09:00 -7°C° 0.2 mm 4 mps 743 mmHg 94%
    10:00 -6°C° 0.2 mm 5 mps 742 mmHg 93%
    11:00 -5°C° 0.2 mm 5 mps 742 mmHg 93%
    12:00 -5°C° 0.2 mm 5 mps 741 mmHg 92%
    13:00 -4°C° 0.2 mm 5 mps 741 mmHg 93%
    14:00 -2°C° 0.2 mm 5 mps 741 mmHg 94%
    15:00 -2°C° 0.2 mm 5 mps 741 mmHg 95%
    16:00 -2°C° 0.1 mm 5 mps 741 mmHg 93%
    17:00 -2°C° 0.1 mm 5 mps 741 mmHg 91%
    18:00 -2°C° 0.1 mm 5 mps 741 mmHg 89%
    19:00 -2°C° 0 mm 5 mps 742 mmHg 89%
    20:00 -2°C° 0 mm 4 mps 742 mmHg 88%
    21:00 -2°C° 0 mm 4 mps 743 mmHg 88%
    22:00 -2°C° 0 mm 4 mps 743 mmHg 91%
    23:00 -1°C° 0 mm 3 mps 742 mmHg 93%

    25 January, Saturday

    Time Temperature Precipitation Wind Pressure Humidity
    00:00 -2°C° 0 mm 2 mps 742 mmHg 96%
    01:00 -1°C° 0.4 mm 3 mps 742 mmHg 96%
    02:00 0°C° 0.4 mm 3 mps 742 mmHg 97%
    03:00 0°C° 0.4 mm 3 mps 741 mmHg 98%
    04:00 +1°C° 0.4 mm 3 mps 741 mmHg 97%
    05:00 0°C° 0.4 mm 4 mps 741 mmHg 97%
    06:00 0°C° 0.4 mm 4 mps 740 mmHg 97%
    07:00 0°C° 0.2 mm 5 mps 740 mmHg 97%
    08:00 0°C° 0.2 mm 5 mps 740 mmHg 96%
    09:00 +1°C° 0.2 mm 5 mps 739 mmHg 96%
    10:00 +1°C° 0.2 mm 5 mps 740 mmHg 96%
    11:00 0°C° 0.2 mm 5 mps 740 mmHg 96%
    12:00 0°C° 0.2 mm 5 mps 740 mmHg 96%
    13:00 +1°C° 0 mm 5 mps 740 mmHg 95%
    14:00 +1°C° 0 mm 5 mps 741 mmHg 94%
    15:00 +1°C° 0 mm 5 mps 741 mmHg 93%
    16:00 0°C° 0 mm 5 mps 742 mmHg 91%
    17:00 0°C° 0 mm 4 mps 742 mmHg 89%
    18:00 0°C° 0 mm 4 mps 743 mmHg 87%
    19:00 -1°C° 0 mm 4 mps 743 mmHg 88%
    20:00 -1°C° 0 mm 3 mps 743 mmHg 89%
    21:00 -1°C° 0 mm 3 mps 744 mmHg 91%
    22:00 -2°C° 0 mm 3 mps 744 mmHg 92%
    23:00 -2°C° 0 mm 3 mps 744 mmHg 93%

    26 January, Sunday

    Time Temperature Precipitation Wind Pressure Humidity
    00:00 -4°C° 0 mm 3 mps 744 mmHg 94%
    01:00 -4°C° 0 mm 3 mps 744 mmHg 93%
    02:00 -4°C° 0 mm 3 mps 745 mmHg 93%
    03:00 -4°C° 0 mm 3 mps 745 mmHg 93%
    04:00 -4°C° 0 mm 3 mps 745 mmHg 93%
    05:00 -3°C° 0 mm 2 mps 745 mmHg 94%
    06:00 -3°C° 0 mm 2 mps 745 mmHg 94%
    07:00 -3°C° 0 mm 2 mps 746 mmHg 94%
    08:00 -3°C° 0 mm 2 mps 746 mmHg 94%
    09:00 -4°C° 0 mm 2 mps 746 mmHg 95%
    10:00 -3°C° 0 mm 2 mps 746 mmHg 92%
    11:00 -2°C° 0 mm 2 mps 746 mmHg 89%
    12:00 -2°C° 0 mm 2 mps 747 mmHg 86%
    13:00 -1°C° 0 mm 3 mps 746 mmHg 87%
    14:00 -1°C° 0 mm 3 mps 746 mmHg 88%
    15:00 -1°C° 0 mm 3 mps 746 mmHg 89%
    16:00 -1°C° 0 mm 3 mps 746 mmHg 89%
    17:00 -2°C° 0 mm 3 mps 746 mmHg 90%
    18:00 -2°C° 0 mm 3 mps 746 mmHg 91%
    19:00 -1°C° 0 mm 3 mps 746 mmHg 92%
    20:00 -1°C° 0 mm 3 mps 746 mmHg 92%
    21:00 -1°C° 0 mm 3 mps 746 mmHg 93%
    22:00 -1°C° 0 mm 3 mps 746 mmHg 94%
    23:00 -2°C° 0 mm 4 mps 746 mmHg 95%
    Show more